Location: Apeadero de Los Molinos-Guadarrama
(40.7091°N, 4.0689°W)
Time: 13:11:34
(UTC+00:00)

SJ 16-02 - Pass Details

Date: 14 May 2021
Orbit: 606 x 616 km, 75.0° (Epoch: 18 June)

Event Time Altitude Azimuth Distance (km) Brightness Sun altitude
Rises 21:58:48 0° 228° (SW) 2,874 4.7 -22.8°
Reaches altitude 10° 22:01:23 10° 242° (WSW) 1,974 4.0 -23.1°
Maximum altitude 22:04:59 24° 297° (WNW) 1,281 3.6 -23.5°
Drops below altitude 10° 22:08:37 10° 352° (N) 1,986 4.8 -23.8°
Sets 22:11:14 0° 6° (N) 2,895 5.6 -24.1°
